West Tisbury, MA

9:18 PM EST on February 11, 2016 (GMT -0500)
Martha's Vineyard

Weather History for KMVY - September, 2013

Change the Weather History Date:

Saturday, September 7, 2013

  Actual Average Record
Temperature  
Mean Temperature 57 °F -  
Max Temperature 73 °F 74 °F 87 °F (1980)
Min Temperature 41 °F 58 °F 34 °F (2000)
Degree Days  
Heating Degree Days 8    
Growing Degree Days 7 (Base 50)    
Moisture  
Dew Point 49 °F    
Average Humidity 67    
Maximum Humidity 93    
Minimum Humidity 44    
Precipitation  
Precipitation 0.00 in - - ()
Sea Level Pressure  
Sea Level Pressure 30.02 in    
Wind  
Wind Speed 7 mph (WSW)    
Max Wind Speed 15 mph    
Max Gust Speed 28 mph    
Visibility 10 miles    
Events      
Averages and records for this station are not official NWS values.
T = Trace of Precipitation, MM = Missing Value Source: NWS Daily Summary

Daily Weather History Graph

Daily Weather History Graph

Search for Another Location

Airport or City:

Trip Planner

Search our weather history database for the weather conditions in past years. The results will help you decide how hot, cold, wet, or windy it might be!

Date:

Astronomy

Sep. 07, 2013 Rise Set
Actual Time 6:14 AM EDT 7:05 PM EDT
Civil Twilight 5:46 AM EDT 7:33 PM EDT
Nautical Twilight 5:13 AM EDT 8:06 PM EDT
Astronomical Twilight 4:38 AM EDT 8:40 PM EDT
Moon 8:28 AM EDT (9/7) 7:59 PM EDT (9/7)
Length of Visible Light 13h 46m
Length of Day
12h 50m
Waxing Crescent, 5% of the Moon is Illuminated
Sep 7
Waxing Crescent
Sep 12
First Quarter
Sep 19
Full
Sep 26
Last Quarter
Oct 4
New

Hourly Weather History & Observations

Time (EDT) Temp. Windchill Dew Point Humidity Pressure Visibility Wind Dir Wind Speed Gust Speed Precip Events Conditions
12:53 AM 43.0 °F 41.3 °F 39.9 °F 89% 30.12 in 10.0 mi WSW 3.5 mph - N/A   Clear
1:53 AM 41.0 °F - 37.9 °F 89% 30.11 in 10.0 mi Calm Calm - N/A   Clear
2:53 AM 41.0 °F - 37.9 °F 89% 30.11 in 10.0 mi Calm Calm - N/A   Clear
3:53 AM 41.0 °F 39.0 °F 39.0 °F 93% 30.10 in 10.0 mi WSW 3.5 mph - N/A   Clear
4:53 AM 42.1 °F 39.2 °F 39.0 °F 89% 30.10 in 10.0 mi WSW 4.6 mph - N/A   Clear
5:53 AM 46.0 °F 43.9 °F 41.0 °F 83% 30.11 in 10.0 mi WSW 4.6 mph - N/A   Clear
6:53 AM 48.9 °F - 45.0 °F 86% 30.10 in 10.0 mi WSW 4.6 mph - N/A   Clear
7:53 AM 63.0 °F - 52.0 °F 67% 30.09 in 10.0 mi WSW 5.8 mph - N/A   Clear
8:53 AM 68.0 °F - 51.1 °F 55% 30.08 in 10.0 mi West 10.4 mph 18.4 mph N/A   Clear
9:53 AM 68.0 °F - 51.1 °F 55% 30.07 in 10.0 mi West 12.7 mph 23.0 mph N/A   Clear
10:53 AM 71.1 °F - 52.0 °F 51% 30.06 in 10.0 mi WSW 13.8 mph 21.9 mph N/A   Clear
11:53 AM 71.1 °F - 52.0 °F 51% 30.04 in 10.0 mi West 15.0 mph 19.6 mph N/A   Clear
12:53 PM 73.0 °F - 52.0 °F 48% 30.02 in 10.0 mi WSW 15.0 mph 21.9 mph N/A   Clear
1:53 PM 72.0 °F - 51.1 °F 48% 30.01 in 10.0 mi SW 15.0 mph 23.0 mph N/A   Clear
2:53 PM 71.1 °F - 48.9 °F 45% 29.98 in 10.0 mi WSW 15.0 mph 27.6 mph N/A   Clear
3:53 PM 71.1 °F - 48.0 °F 44% 29.97 in 10.0 mi WSW 11.5 mph 18.4 mph N/A   Clear
4:53 PM 68.0 °F - 51.1 °F 55% 29.95 in 10.0 mi SW 12.7 mph 19.6 mph N/A   Clear
5:53 PM 68.0 °F - 53.1 °F 59% 29.95 in 10.0 mi WSW 12.7 mph - N/A   Clear
6:53 PM 66.0 °F - 52.0 °F 60% 29.94 in 10.0 mi WSW 8.1 mph - N/A   Clear
7:53 PM 64.0 °F - 53.1 °F 67% 29.93 in 10.0 mi SW 6.9 mph - N/A   Clear
8:53 PM 64.0 °F - 54.0 °F 70% 29.94 in 10.0 mi West 4.6 mph - N/A   Clear
9:53 PM 64.0 °F - 54.0 °F 70% 29.93 in 10.0 mi West 6.9 mph - N/A   Clear
10:53 PM 66.0 °F - 55.0 °F 68% 29.91 in 10.0 mi WSW 8.1 mph - N/A   Clear
11:53 PM 66.0 °F - 55.9 °F 70% 29.90 in 10.0 mi WSW 6.9 mph - N/A   Mostly Cloudy